Regional Weather Roundup
Issued by NWS Newport/Morehead, NC

Current Version | Previous Version | Graphics & Text | Print | Product List | Glossary Off
Versions: 1 2 3 4 5 6 7 8 9 10 11 12 13 14 15 16 17 18 19 20 21 22 23 24 25 26 27 28 29 30 31 32 33 34 35 36 37 38 39 40 41 42 43 44 45 46 47 48 49 50

000
ASUS42 KMHX 021713
RWRMHX
WEATHER ROUNDUP FOR EASTERN NORTH CAROLINA
NATIONAL WEATHER SERVICE NEWPORT/MOREHEAD CITY NC
100 PM EDT MON MAY 02 2016

NOTE: "FAIR" INDICATES FEW OR NO CLOUDS BELOW 12,000 FEET
WITH NO SIGNIFICANT WEATHER AND/OR OBSTRUCTIONS TO VISIBILITY

NCZ015>017-031-032-045>047-102-103-021800-
NORTH COAST

CITY           SKY/WX    TMP DP  RH WIND       PRES   REMARKS
EDENTON        MOSUNNY   82  69  65 W7        29.99F
ELIZABETH CITY MOSUNNY   80  68  66 SW15      29.97F
KITTY HAWK     CLOUDY    84  67  56 SW10      29.98F
MANTEO         NOT AVBL

$$

NCZ045>047-081-094-103-104-021800-
CENTRAL COAST

CITY           SKY/WX    TMP DP  RH WIND       PRES   REMARKS
FRISCO         CLOUDY    75  69  81 SW10      30.04F
SWANQUARTER    NOT AVBL

$$

NCZ095-097-098-100-101-021800-
SOUTHERN COAST

CITY           SKY/WX    TMP DP  RH WIND       PRES   REMARKS
BEAUFORT       CLOUDY    76  70  82 SW21      30.04F
CEDAR ISLAND   NOT AVBL
JACKSONVILLE   PTSUNNY   81  67  62 SW10      30.02F
PINEY ISLAND   NOT AVBL
WILMINGTON     MOSUNNY   82  68  62 SW13      30.03F


$$

NCZ011>013-027>030-043-044-078>080-089-090>093-098-021800-
COASTAL PLAIN

CITY           SKY/WX    TMP DP  RH WIND       PRES   REMARKS
AHOSKIE        SUNNY     80  69  68 CALM      29.98F
CLINTON        MOSUNNY   81  70  69 S8        30.02F
ELIZABETHTOWN  CLOUDY    81  66  60 SW7       30.02F
GOLDSBORO      NOT AVBL
GREENVILLE     PTSUNNY   81  70  69 SW12G20   30.02F
HAVELOCK       PTSUNNY   81  71  71 SW14      30.03F
KENANSVILLE    MOSUNNY   79  68  67 S5        30.03F
KINSTON        PTSUNNY   81  70  69 SW8       30.01F
NEW BERN       PTSUNNY   81  68  64 SW10      30.02F
RICHLANDS      CLOUDY    81  70  69 SW10      30.02F
ROCKY MOUNT    PTSUNNY   79  68  69 SW13      29.99F
WASHINGTON     MOSUNNY   80  69  69 SW9       30.00F
WHITEVILLE     MOSUNNY   80  68  65 W6        30.03F

$$

AMZ130-135-150-152-154-156-158-170-250-252-270-ANZ085-086-088-633-658-670-021800-
MARINE OBSERVATIONS

STATION/POSITION TIME  TEMP    WIND        PRES    WAVE   SWELL
                       AIR SEA DIR/SP/G            HT/PER HT/PER
                 (UTC) (F)     (DEG/KT/KT) (MB)    (FT/S) (FT/S)
CHESAPEAKE LIGHT 1700   73     240/  9/ 10 1015.1
64 E VA BEACH    1650   58 54  200/ 12/ 14 1014.9    5/11   3/11
DUCK             1600   75 66  230/ 14/ 17 1015.2
2 E DUCK         1611      59                N/A     3/10   2/12
OREGON INLET     1600   71 67  200/ 17/ 21 1016.1
13E OREGON INLT  1700      61                N/A     4/11   3/11
HATTERAS CG      1600   74 67  210/  9/ 13 1017.4
DIAMOND BUOY     1650   74 74  220/ 16/ 19 1017.1    4/11   3/11
CAPE LOOKOUT     1700   74     210/ 14/ 18 1017.1
BEAUFORT LAB     1600   74 67  210/ 10/ 13 1017.1
30 SE NEW RVR IN 1625      69                N/A     4/ 6   2/11
27 SE WRIGHTSVLE 1608   73 71  220/  8/ 10 1017.8
5 SE WRIGHTSVLE  1608   72 69  200/ 10/ 14 1018.6
225 S CAPE HAT   1650   74 75  160/ 12/ 14 1020.5    3/ 9   3/ 9
41 SE CHARLESTON 1650   75 74  230/  4/  6 1017.7    3/ 9   3/ 9

$$




USA.gov is the U.S. government's official web portal to all federal, state and local government web resources and services.